• MPC Preparation (Info)

  • MPEC 2013-L32 : 2013 LR6

    The following Minor Planet Electronic Circular may be linked-to from your own Web pages, but must not otherwise be redistributed electronically.

    A form allowing access to any MPEC is at the bottom of this page.


    Read MPEC 2013-L31 Read MPEC 2013-L33


    M.P.E.C. 2013-L32                                Issued 2013 June 7, 12:42 UT
    
         The Minor Planet Electronic Circulars contain information on unusual
             minor planets and routine data on comets.  They are published
       on behalf of Commission 20 of the International Astronomical Union by the
              Minor Planet Center, Smithsonian Astrophysical Observatory,
                              Cambridge, MA 02138, U.S.A.
    
                 Prepared using the Tamkin Foundation Computer Network
    
                                  MPC@CFA.HARVARD.EDU
                URL https://www.minorplanetcenter.net/    ISSN 1523-6714
    
                                       2013 LR6
    
    Observations:
         K13L06R* C2013 06 06.25822 14 30 22.89 -04 44 34.0          19.9 VuEL032703
         K13L06R  C2013 06 06.26505 14 30 18.79 -04 45 15.4          19.6 VuEL032703
         K13L06R  C2013 06 06.27182 14 30 14.58 -04 45 56.5          19.3 VuEL032703
         K13L06R  C2013 06 06.27866 14 30 10.44 -04 46 37.2          18.7 VuEL032703
         K13L06R  C2013 06 06.30446 14 29 54.84 -04 49 14.7          19.5 VuEL032703
         K13L06R  C2013 06 06.30543 14 29 54.16 -04 49 20.5          19.5 VuEL032703
         K13L06R  C2013 06 06.33950 14 29 34.15 -04 52 52.7          19.2 VuEL032G96
         K13L06R  C2013 06 06.34006 14 29 33.82 -04 52 56.1          19.3 VuEL032G96
         K13L06R  C2013 06 06.34060 14 29 33.50 -04 52 59.9          19.7 VuEL032G96
         K13L06R  C2013 06 06.34116 14 29 33.18 -04 53 03.1          19.3 VuEL032G96
         K13L06R KC2013 06 06.43506 14 29 31.33 -04 45 49.0          20.3 VoEL032474
         K13L06R KC2013 06 06.43653 14 29 30.27 -04 45 59.4          20.2 VoEL032474
         K13L06R KC2013 06 06.43836 14 29 29.06 -04 46 11.4          19.4 VoEL032474
         K13L06R KC2013 06 06.44100 14 29 27.30 -04 46 29.2          19.4 VoEL032474
         K13L06R KC2013 06 06.44283 14 29 26.03 -04 46 41.4          19.4 VoEL032474
         K13L06R KC2013 06 06.90600 14 25 18.49 -06 27 33.9                qEL032J95
         K13L06R KC2013 06 06.91117 14 25 13.00 -06 28 44.7          18.4 RqEL032J95
         K13L06R KC2013 06 06.91500 14 25 08.87 -06 29 39.0                qEL032J95
         K13L06R KC2013 06 06.91890 14 25 04.66 -06 30 32.9          18.5 RqEL032J95
         K13L06R KC2013 06 06.98065 14 23 55.92 -06 45 36.2                qEL032J95
         K13L06R KC2013 06 06.98351 14 23 52.65 -06 46 19.5                qEL032J95
         K13L06R KC2013 06 06.98640 14 23 49.30 -06 47 04.4          18.6 RqEL032J95
         K13L06R  C2013 06 07.14279 14 22 18.62 -07 28 47.7          18.1 VuEL032G96
         K13L06R  C2013 06 07.14309 14 22 18.12 -07 28 54.0          17.8 VuEL032G96
         K13L06R  C2013 06 07.14341 14 22 17.61 -07 29 01.0          18.1 VuEL032G96
         K13L06R  C2013 06 07.14371 14 22 17.14 -07 29 07.4          18.1 VuEL032G96
         K13L06R KC2013 06 07.18321 14 20 49.46 -07 45 15.0          17.9 RqEL032H36
         K13L06R KC2013 06 07.19065 14 20 36.68 -07 47 59.2          18.0 RqEL032H36
         K13L06R KC2013 06 07.19560 14 20 28.07 -07 49 49.6          18.1 RqEL032H36
         K13L06R KC2013 06 07.20056 14 20 19.40 -07 51 40.8          18.1 RqEL032H36
         K13L06R  C2013 06 07.20750 14 20 28.17 -07 52 18.6          17.9 VuEL032703
         K13L06R  C2013 06 07.21420 14 20 15.82 -07 54 54.3          18.1 VuEL032703
         K13L06R  C2013 06 07.22093 14 20 03.44 -07 57 30.1          17.9 VuEL032703
         K13L06R  C2013 06 07.29529 14 17 36.63 -08 28 35.5          18.2 VuEL032G96
         K13L06R  C2013 06 07.29565 14 17 35.91 -08 28 44.9          17.8 VuEL032G96
         K13L06R  C2013 06 07.29598 14 17 35.23 -08 28 54.1          18.1 VuEL032G96
         K13L06R  C2013 06 07.29631 14 17 34.54 -08 29 02.9          18.2 VuEL032G96
         K13L06R  C2013 06 07.30766 14 19 10.16 -07 58 04.1          17.3 VoEL032474
         K13L06R  C2013 06 07.30816 14 19 09.18 -07 58 17.5          17.7 VoEL032474
         K13L06R  C2013 06 07.30843 14 19 08.74 -07 58 23.8          17.3 VoEL032474
         K13L06R  C2013 06 07.30992 14 19 05.86 -07 59 03.6          17.1 VoEL032474
         K13L06R KC2013 06 07.31148 14 19 02.86 -07 59 45.7          18.2 VoEL032474
         K13L06R KC2013 06 07.31179 14 19 02.29 -07 59 53.7          18.0 VoEL032474
         K13L06R KC2013 06 07.31213 14 19 01.60 -08 00 03.1          18.4 VoEL032474
         K13L06R KC2013 06 07.31248 14 19 00.93 -08 00 12.3          18.1 VoEL032474
         K13L06R KC2013 06 07.31275 14 19 00.41 -08 00 19.7          17.9 VoEL032474
         K13L06R  C2013 06 07.41612 14 15 42.35 -08 57 12.0          18.1 VoEL032E23
         K13L06R  C2013 06 07.41960 14 15 33.17 -08 59 11.7          17.6 VoEL032E23
         K13L06R  C2013 06 07.42307 14 15 23.98 -09 01 13.4          17.5 VoEL032E23
         K13L06R KC2013 06 07.44123 14 13 57.32 -09 06 31.5          17.6 VoEL032474
         K13L06R KC2013 06 07.44276 14 13 53.08 -09 07 25.5          17.8 VoEL032474
         K13L06R KC2013 06 07.44470 14 13 47.68 -09 08 34.7          18.0 VoEL032474
         K13L06R KC2013 06 07.44546 14 13 45.53 -09 09 02.0          18.1 VoEL032474
         K13L06R KC2013 06 07.44623 14 13 43.37 -09 09 29.9          18.6 VoEL032474
         K13L06R  C2013 06 07.45878 14 13 42.57 -09 22 53.5          17.6 VoEL032E23
         K13L06R  C2013 06 07.46226 14 13 32.19 -09 25 05.8          17.3 VoEL032E23
         K13L06R  C2013 06 07.46573 14 13 21.69 -09 27 19.3          17.3 VoEL032E23
    
    Observer details:
    474 Mount John Observatory, Lake Tekapo.  Observers A. C. Gilmore,
        P. M. Kilmartin.  Measurer P. M. Kilmartin.  1.0-m f/7.7 reflector + CCD.
    703 Catalina Sky Survey.  Observer J. A. Johnson.  Measurers A. Boattini,
        E. J. Christensen, A. R. Gibbs, A. D. Grauer, R. E. Hill, J. A. Johnson,
        R. A. Kowalski, S. M. Larson, R. H. McNaught, F. C. Shelly.  0.68-m
        Schmidt + CCD.
    E23 Arcadia.  Observer A. Hidas.  0.35-m Schmidt-Cassegrain + CCD.
    G96 Mt. Lemmon Survey.  Observer A. Boattini.  Measurers A. Boattini,
        E. J. Christensen, A. R. Gibbs, A. D. Grauer, R. E. Hill, J. A. Johnson,
        R. A. Kowalski, S. M. Larson, R. H. McNaught, F. C. Shelly.  1.5-m
        reflector + CCD.
    H36 Sandlot Observatory, Scranton.  Observer G. Hug.  0.56-m reflector + CCD.
    J95 Great Shefford.  Observer P. Birtwhistle.  0.40-m f/6.0 Schmidt-Cassegrain
        + CCD.
    
    Orbital elements:
    2013 LR6                                                 Earth MOID = 0.0008 AU
    Epoch 2013 Apr. 18.0 TT = JDT 2456400.5                 MPC
    M 331.46052              (2000.0)            P               Q
    n   0.36417961     Peri.  214.29006     +0.35856416     +0.93146860
    a   1.9420436      Node    76.78951     -0.84166265     +0.35113691
    e   0.5068965      Incl.    3.62942     -0.40377683     +0.09523189
    P   2.71           H   27.8           G   0.15           U   5
    Residuals in seconds of arc
    130606 703  0.8-  1.1+    130606 J95  0.1+  0.1-    130607 474  0.6-  0.6-
    130606 703  0.5+  0.4+    130606 J95  0.1+  0.3+    130607 474  0.5+  0.3+
    130606 703  0.5-  0.2-    130606 J95  0.5-  0.3-    130607 474  0.1+  0.3+
    130606 703  0.0   0.3+    130607 G96  0.0   0.0     130607 474  0.2+  0.1+
    130606 703  0.7+  0.3-    130607 G96  0.4-  0.1-    130607 474  0.6+  0.4+
    130606 703  0.8-  0.1-    130607 G96  0.4-  0.5-    130607 474  0.1+  0.2+
    130606 G96  0.0   0.0     130607 G96  0.4-  0.6-    130607 474  0.2+  0.4+
    130606 G96  0.1-  0.1+    130607 H36  0.4-  0.1-    130607 474  0.3+  0.3+
    130606 G96  0.2-  0.3-    130607 H36  0.3-  0.3-    130607 E23  0.8-  0.4-
    130606 G96  0.2-  0.1+    130607 H36  0.6-  0.5-    130607 E23  0.2-  0.3+
    130606 474  0.8+  0.0     130607 H36  0.6-  0.3-    130607 E23  1.3+  0.5-
    130606 474  0.2-  0.5-    130607 703  0.1+  0.5+    130607 474  0.2-  0.0
    130606 474  0.1+  0.2-    130607 703  0.6-  0.3-    130607 474  0.1+  0.3+
    130606 474  0.4+  0.3-    130607 703  1.2+  1.1+    130607 474  0.3+  0.2+
    130606 474  0.1-  0.2-    130607 G96  0.6-  0.1+    130607 474  0.0   0.0
    130606 J95  0.4+  0.3-    130607 G96  0.2-  0.3+    130607 474  0.1+  0.3-
    130606 J95  0.5+  0.5+    130607 G96  0.2-  0.1-    130607 E23  0.4-  0.0
    130606 J95  0.0   0.4-    130607 G96  0.3-  0.0     130607 E23  0.4+  0.2+
    130606 J95  0.2-  0.3+    130607 474  0.2-  0.6-    130607 E23  0.3+  0.2-
    
    Ephemeris:
    2013 LR6                 a,e,i = 1.94, 0.51, 4                   q = 0.9576
    Date    TT    R. A. (2000) Decl.     Delta      r     Elong.  Phase     V
    2013 05 08    14 47 43.5 -03 29 34   0.1818  1.1866   166.2    11.7    25.2
    ...
    2013 05 23    14 42 27.8 -02 22 16   0.09038 1.0944   154.0    24.0    23.9
    ...
    2013 05 31    14 39 23.8 -02 20 07   0.04531 1.0519   146.5    32.1    22.6
    ...
    2013 06 06    14 31 53.2 -04 14 19   0.01216 1.0242   140.6    39.0    19.8
    2013 06 07    14 24 08.4 -06 32 05   0.0066681.0199   139.1    40.6    18.6
    2013 06 08    13 03 05.1 -27 43 25   0.0013211.0158   125.8    54.2    15.4
    ...
    2013 06 14    02 33 51.2 +03 48 32   0.03201 0.9939    46.6   132.1    26.2
    ...
    2013 06 22    02 33 55.5 +04 43 21   0.07618 0.9729    53.6   122.8    27.2
    ...
    2013 07 07    02 42 08.7 +06 00 31   0.1582  0.9611    65.2   106.2    27.7
    
    A. U. Tomatic                (C) Copyright 2013 MPC           M.P.E.C. 2013-L32
    

    Read MPEC 2013-L31 Read MPEC 2013-L33


    MPEC number:

    Enter an MPEC number in one of the following forms:

    • 1997-B01 (the full form)
    • J97B01 (the packed version of the full form)
    • B01 (the abbreviated form)